Location: York
(31.8935°S, 116.7682°E)
Time: 02:16:58
(UTC+08:00)

Courier 1B Rocket - All Passes

Search period start: 19 June 2021 00:00
Search period end: 29 June 2021 00:00
Orbit: 920 x 1202 km, 28.2° (Epoch: 17 June)

Date Brightness Start Highest point End Pass type
(mag) Time Alt. Az. Time Alt. Az. Time Alt. Az.
19 Jun - 04:19:54 10° NNE 04:21:19 11° NE 04:22:45 10° NE visible
19 Jun - 06:07:51 10° NW 06:14:03 33° NNE 06:20:38 10° E visible
19 Jun - 08:00:06 10° WNW 08:07:20 61° N 08:14:58 10° E daylight
19 Jun - 09:53:26 10° W 10:01:00 67° N 10:08:49 10° ENE daylight
19 Jun - 11:47:16 10° W 11:54:36 45° NNW 12:01:57 10° NE daylight
19 Jun - 13:42:30 10° WNW 13:47:45 19° NNW 13:52:55 10° NNE daylight
20 Jun - 05:07:44 10° NNW 05:13:06 24° NNE 05:18:46 10° ENE visible
20 Jun - 06:59:15 10° WNW 07:06:09 52° NNE 07:13:31 10° E daylight
20 Jun - 08:52:19 10° W 08:59:43 68° N 09:07:29 10° E daylight
20 Jun - 10:45:55 10° W 10:53:22 54° NNW 11:00:59 10° ENE daylight
20 Jun - 12:40:22 10° W 12:46:41 27° NNW 12:52:59 10° NNE daylight
21 Jun - 04:08:12 10° N 04:12:14 17° NNE 04:16:25 10° ENE visible
21 Jun - 05:58:36 10° NW 06:05:04 42° NNE 06:12:00 10° E visible
21 Jun - 07:51:17 10° WNW 07:58:27 66° N 08:06:06 10° E daylight
21 Jun - 09:44:41 10° W 09:52:07 61° N 09:59:50 10° ENE daylight
21 Jun - 11:38:40 10° W 11:45:35 35° NNW 11:52:32 10° NE daylight
21 Jun - 13:35:26 10° WNW 13:38:37 13° NNW 13:41:47 10° N daylight
22 Jun - 04:58:12 10° NW 05:04:05 33° NNE 05:10:22 10° E visible
22 Jun - 06:50:22 10° WNW 06:57:15 60° N 07:04:40 10° E daylight
22 Jun - 08:43:34 10° W 08:50:51 66° N 08:58:33 10° ENE daylight
22 Jun - 10:37:15 10° W 10:44:24 44° NNW 10:51:45 10° NE daylight
22 Jun - 12:32:24 10° WNW 12:37:35 19° NNW 12:42:47 10° NNE daylight
23 Jun - 03:58:08 10° NNW 04:03:12 24° NNE 04:08:32 10° ENE visible
23 Jun - 05:49:35 10° WNW 05:56:09 52° NNE 06:03:13 10° E visible
23 Jun - 07:42:32 10° W 07:49:37 67° N 07:57:12 10° E daylight
23 Jun - 09:36:00 10° W 09:43:12 53° NNW 09:50:44 10° ENE daylight
23 Jun - 11:30:21 10° W 11:36:30 26° NNW 11:42:46 10° NNE daylight
24 Jun - 02:58:38 10° N 03:02:23 16° NNE 03:06:15 10° ENE visible
24 Jun - 04:48:59 10° NW 04:55:08 42° NNE 05:01:44 10° E visible
24 Jun - 06:41:36 10° WNW 06:48:25 65° N 06:55:48 10° E visible
24 Jun - 08:34:53 10° W 08:41:59 60° N 08:49:32 10° ENE daylight
24 Jun - 10:28:44 10° W 10:35:24 34° NNW 10:42:16 10° NE daylight
24 Jun - 12:25:29 10° NW 12:28:29 12° NNW 12:31:29 10° N daylight
25 Jun - 03:48:37 10° NW 03:54:13 32° NNE 04:00:11 10° E visible
25 Jun - 05:40:44 10° WNW 05:47:18 59° N 05:54:24 10° E visible
25 Jun - 07:33:51 10° W 07:40:47 65° N 07:48:15 10° ENE daylight
25 Jun - 09:27:25 10° W 09:34:15 43° NNW 09:41:27 10° NE daylight
25 Jun - 11:22:29 10° WNW 11:27:26 19° NNW 11:32:29 10° NNE daylight
26 Jun - 02:48:33 10° NNW 02:53:23 23° NNE 02:58:26 10° ENE visible
26 Jun - 04:40:00 10° WNW 04:46:17 51° NNE 04:53:00 10° E visible
26 Jun - 06:32:54 10° W 06:39:38 67° N 06:46:54 10° E visible
26 Jun - 08:26:15 10° W 08:33:06 51° NNW 08:40:25 10° ENE daylight
26 Jun - 10:20:30 10° WNW 10:26:22 25° NNW 10:32:26 10° NNE daylight
27 Jun - 01:49:02 10° N 01:52:37 16° NNE 01:56:15 10° ENE night (unlit)
27 Jun - 03:39:24 10° NW 03:45:20 41° NNE 03:51:36 10° E visible
27 Jun - 05:31:59 10° WNW 05:38:31 64° N 05:45:33 10° E visible
27 Jun - 07:25:12 10° W 07:31:58 58° N 07:39:14 10° ENE daylight
27 Jun - 09:18:58 10° W 09:25:18 33° NNW 09:31:56 10° NE daylight
27 Jun - 11:15:52 10° NW 11:18:22 12° NNW 11:20:53 10° NNW daylight
28 Jun - 02:39:00 10° NW 02:44:28 31° NNE 02:50:08 10° E visible
28 Jun - 04:31:10 10° WNW 04:37:28 59° N 04:44:13 10° E visible
28 Jun - 06:24:13 10° W 06:30:51 63° N 06:37:58 10° ENE visible
28 Jun - 08:17:43 10° W 08:24:12 41° NNW 08:31:07 10° NE daylight
28 Jun - 10:12:46 10° WNW 10:17:20 17° NNW 10:22:02 10° N daylight
